Regional Weather Roundup
Issued by NWS Mt. Holly, NJ

Home | Current Version | Previous Version | Text Only | Print | Product List | Glossary On
Versions: 1 2 3 4 5 6 7 8 9 10 11 12 13 14 15 16 17 18 19 20 21 22 23 24 25 26 27 28 29 30 31 32 33 34 35 36 37 38 39 40 41 42 43 44 45 46 47 48 49 50
000
ASUS41 KPHI 202110
RWRPHI

REGIONAL WEATHER ROUNDUP
NATIONAL WEATHER SERVICE MOUNT HOLLY NJ
500 PM EDT WED AUG 20 2014

NOTE:  "FAIR" INDICATES FEW OR NO CLOUDS BELOW 12,000 FEET WITH NO
SIGNIFICANT WEATHER AND/OR OBSTRUCTIONS TO VISIBILITY.

 * = STATION DOES NOT REPORT PRECIPITATION (E.G. RAIN, SNOW, ETC.)
        OR FOG.

NJZ015>026-202200-
SOUTHERN NEW JERSEY

CITY           SKY/WX    TMP DP  RH WIND       PRES   REMARKS
POMONA         SUNNY     77  62  59 SE10      29.99S
RIO GRANDE*    SUNNY     77  61  57 SE8       30.01R
MILLVILLE      SUNNY     82  61  48 SE7       29.98R
WRIGHTSTOWN    MOSUNNY   80  62  53 SE9       29.96R
MOUNT HOLLY    PTSUNNY   80  65  59 S3        29.97S
TRENTON        CLOUDY    82  62  50 S6        29.97R

$$
NJZ001>014-202200-
NORTHERN NEW JERSEY

CITY           SKY/WX    TMP DP  RH WIND       PRES   REMARKS
SUSSEX         CLOUDY    85  64  49 VRB5      29.98R
ANDOVER*         N/A     82  62  50 SW9       29.98S
MORRISTOWN     MOSUNNY   84  59  42 S10G17    29.98R
NEWARK         MOSUNNY   81  56  42 SE7       29.98R
TETERBORO      SUNNY     83  57  41 S9        29.97R
CALDWELL       MOSUNNY   83  58  42 S10       29.98R
SOMERVILLE     PTSUNNY   83  63  50 VRB5      29.95S
ALLAIRE*       SUNNY     77  57  50 E7        30.00S
TOMS RIVER*    SUNNY     79  57  47 SE6       30.00S

$$
PAZ043-044-047-054-055-060>062-066>071-202200-
EASTERN PENNSYLVANIA

CITY           SKY/WX    TMP DP  RH WIND       PRES   REMARKS
PHILADELPHIA   CLOUDY    84  63  49 S5        29.97R
NORTH PHILA    CLOUDY    84  62  47 SE8       29.98R
BLUE BELL      MOSUNNY   82  64  54 SW6       29.97S
DOYLESTOWN     PTSUNNY   80  64  58 VRB3      29.97S
QUAKERTOWN*    CLOUDY    81  64  57 MISG      29.99S
POTTSTOWN      CLOUDY    81  63  54 VRB3      29.99R
LANCASTER      CLOUDY    78  63  59 S7        29.97S
COATESVILLE    PTSUNNY   77  66  69 CALM      29.99F
READING        CLOUDY    81  64  56 S7        29.96S
ALLENTOWN      PTSUNNY   83  64  52 SW7       29.97S
MOUNT POCONO   MOSUNNY   75  63  66 S9        30.04R
HAZLETON       CLOUDY    73  63  68 CALM      30.05R
WILKES BARRE   PTSUNNY   79  63  57 SW7       29.98R

$$
DEZALL-MDZ008-012-015-019-020-202200-
DELAWARE AND EASTERN MARYLAND

CITY           SKY/WX    TMP DP  RH WIND       PRES   REMARKS
WILMINGTON     PTSUNNY   81  65  58 SE12      29.98S
DOVER          SUNNY     81  56  42 E6        29.98R
GEORGETOWN     SUNNY     81  61  50 SE8       29.99R
EASTON         PTSUNNY   86  64  48 S8        30.00S
OCEAN CITY     SUNNY     77  64  64 E7        30.00R
WALLOPS ISLAND SUNNY     79  67  66 E7        29.99R
CAMBRIDGE      PTSUNNY   86  61  42 S6        29.96S
SALISBURY      SUNNY     83  62  49 SE7       29.98R

$$
PAZ001-021-NYZ056-072-MDZ011-DCZ001-202200-
OTHER NEARBY LOCATIONS

CITY           SKY/WX    TMP DP  RH WIND       PRES   REMARKS
HARRISBURG     LGT RAIN  76  72  87 CALM      29.96R
STATE COLLEGE  PTSUNNY   75  68  78 SW7       29.98R
WILLIAMSPORT   CLOUDY    75  68  78 MISG      29.95R
BINGHAMTON     CLOUDY    71  65  81 SW5       30.00R
NEW YORK CITY  SUNNY     81  57  43 VRB3      30.02R
BALTIMORE      PTSUNNY   81  61  50 SE5       29.96R
WASHINGTON DC  PTSUNNY   84  60  44 S7        29.96R

$$


USA.gov is the U.S. government's official web portal to all federal, state and local government web resources and services.